Location: Ecklingerode
(51.5036°N, 10.3122°E)
Time: 13:47:05
(UTC+00:00)

Cosmos 1844 Rocket - Pass Details

Date: 29 October 2020
Orbit: 823 x 846 km, 71.0° (Epoch: 28 November)

Event Time Altitude Azimuth Distance (km) Brightness Sun altitude
Rises 18:24:55 0° 330° (NNW) 3,412 6.4 -23.5°
Reaches altitude 10° 18:27:47 10° 343° (NNW) 2,477 5.4 -24.0°
Enters shadow 18:31:49 26° 28° (NNE) 1,626 4.0 -24.6°
